CST,Max TemperatureF,Mean TemperatureF,Min TemperatureF,Max Dew PointF,MeanDew PointF,Min DewpointF,Max Humidity, Mean Humidity, Min Humidity, Max Sea Level PressureIn, Mean Sea Level PressureIn, Min Sea Level PressureIn, Max VisibilityMiles, Mean VisibilityMiles, Min VisibilityMiles, Max Wind SpeedMPH, Mean Wind SpeedMPH, Max Gust SpeedMPH,PrecipitationIn, CloudCover, Events, WindDirDegrees
2013-1-1,46,39,32,46,31,23,100,71,49,30.29,30.19,30.02,10,9,2,16,9,20,0.00,4,Rain,358
2013-1-2,44,34,24,25,24,19,86,70,43,30.35,30.29,30.23,10,9,5,9,5,,0.00,0,,354
2013-1-3,44,32,19,30,24,18,93,67,43,30.45,30.40,30.34,10,10,10,13,2,18,0.00,4,,25
2013-1-4,39,34,30,37,33,28,100,92,65,30.51,30.43,30.36,10,8,0,13,2,,0.98,8,Fog-Rain-Snow,15
2013-1-5,55,44,32,37,34,30,100,78,41,30.36,30.28,30.20,10,8,0,13,4,18,0.00,3,Fog,226
2013-1-6,57,42,28,32,25,23,100,62,27,30.43,30.35,30.31,10,10,10,13,5,,0.00,0,,14
2013-1-7,51,38,24,32,28,23,93,71,41,30.32,30.20,30.07,10,10,10,12,3,,0.00,2,,125
2013-1-8,48,42,35,48,43,32,100,94,81,30.07,30.00,29.93,10,5,0,10,3,,1.12,8,Rain-Thunderstorm,34
2013-1-9,53,50,48,54,50,46,100,98,88,30.11,30.01,29.90,10,4,1,16,9,25,0.81,8,Rain-Thunderstorm,6
2013-1-10,57,50,44,50,45,41,100,85,67,30.01,29.97,29.94,10,10,1,15,9,25,0.00,5,Rain,214
2013-1-11,71,56,41,55,48,39,94,76,50,29.96,29.86,29.77,10,10,9,23,7,30,0.00,0,,164
2013-1-12,59,47,35,59,39,23,100,67,38,30.02,29.84,29.75,10,9,4,20,9,26,0.00,8,,347
2013-1-13,41,34,26,23,19,16,74,56,42,30.25,30.16,30.01,10,10,10,21,13,26,0.00,2,,356
2013-1-14,44,34,24,23,18,16,69,55,36,30.29,30.22,30.16,10,10,10,14,8,18,0.00,2,,32
2013-1-15,39,32,26,25,20,18,75,59,45,30.25,30.20,30.14,10,10,10,18,8,24,0.00,6,,352
2013-1-16,51,35,19,25,19,10,93,61,23,30.31,30.25,30.16,10,10,10,20,4,25,0.00,2,,303
2013-1-17,60,43,26,32,27,23,93,62,27,30.50,30.42,30.30,10,10,10,12,3,16,0.00,0,,6
2013-1-18,62,43,24,32,28,23,93,60,27,30.50,30.39,30.25,10,10,8,14,4,20,0.00,1,,163
2013-1-19,68,49,30,39,33,27,93,61,26,30.26,30.19,30.12,10,10,10,14,5,18,0.00,0,,177
2013-1-20,68,47,26,37,31,25,100,66,26,30.24,30.16,30.08,10,10,10,12,2,16,0.00,0,,232
2013-1-21,57,44,32,36,30,27,87,62,36,30.30,30.22,30.14,10,10,10,14,4,16,0.00,1,,353
2013-1-22,71,52,32,45,36,27,87,61,33,30.30,30.23,30.15,10,10,10,15,3,21,0.00,4,,181
2013-1-23,77,58,39,52,47,39,100,70,38,30.30,30.22,30.14,10,10,2,14,6,18,0.00,0,,175
2013-1-24,82,60,39,55,47,39,100,67,25,30.22,30.14,30.05,10,9,0,16,4,26,0.00,1,Fog,191
2013-1-25,64,54,44,54,43,37,100,72,45,30.20,30.12,30.05,10,10,8,16,4,20,0.00,0,,7
2013-1-26,62,50,37,55,44,36,100,79,54,30.20,30.13,30.06,10,9,4,14,3,,0.00,4,,141
2013-1-27,75,65,55,59,56,54,100,77,47,30.05,29.99,29.92,10,9,4,22,11,29,0.00,3,,162
2013-1-28,78,70,62,64,61,57,100,77,47,29.99,29.91,29.83,10,10,6,25,11,34,0.00,6,,163
2013-1-29,75,63,51,64,45,14,88,56,20,29.82,29.69,29.55,10,10,6,29,17,41,0.12,4,Rain-Thunderstorm,223
2013-1-30,51,40,28,28,17,9,69,38,18,30.17,30.05,29.81,10,10,5,30,16,37,0.00,1,Thunderstorm,300
2013-1-31,66,44,23,28,20,16,80,43,14,30.26,30.19,30.12,10,10,10,21,5,30,0.00,1,,215